Location: Arcones
(41.1182°N, 3.7238°W)
Time: 04:47:21
(UTC+00:00)

IRIDIUM 106 - Pass Details

Date: 17 March 2026
Orbit: 776 x 780 km, 86.4° (Epoch: 17 April)

Event Time Altitude Azimuth Distance (km) Brightness Sun altitude
Exits shadow 20:21:15 19° 41° (NE) 1,802 6.0 -22.6°
Drops below altitude 10° 20:23:03 10° 26° (NNE) 2,339 6.7 -22.9°
Sets 20:25:41 0° 15° (NNE) 3,271 7.6 -23.3°
